QPF
0.00 0.00 0.00 0.00 0.00 0.00 0.00 0.00 0.00 0.00 0.00 0.00 0.00 0.00 0.00 0.00 0.00 0.00 0.00 0.00 0.00 0.00 0.00 0.00 0.00 0.00 0.00 0.00 0.00 0.00 0.00 0.00 0.00 0.01 0.01 0.01 0.01 0.01 0.00 0.00 0.00 0.00 0.00 0.01
0.00 0.00 0.00 0.00 0.00 0.00 0.00 0.00 0.00 0.00 0.00 0.00 0.00 0.00 0.00 0.00 0.00 0.00 0.00 0.00 0.00 0.00 0.00 0.00 0.00 0.00 0.00 0.00 0.00 0.00 0.00 0.00 0.00 0.00 0.00 0.01 0.01 0.01 0.00 0.00 0.00 0.00 0.00 0.00
0.00 0.00 0.00 0.00 0.00 0.00 0.00 0.00 0.00 0.00 0.00 0.00 0.00 0.00 0.00 0.00 0.00 0.00 0.00 0.00 0.00 0.00 0.00 0.00 0.00 0.00 0.00 0.00 0.00 0.00 0.00 0.00 0.00 0.00 0.00 0.00 0.00 0.01 0.00 0.01 0.00 0.00 0.00 0.00
0.00 0.00 0.00 0.00 0.00 0.00 0.00 0.00 0.00 0.00 0.00 0.00 0.00 0.00 0.00 0.00 0.00 0.00 0.00 0.00 0.00 0.00 0.00 0.00 0.00 0.00 0.00 0.00 0.00 0.00 0.00 0.00 0.00 0.00 0.00 0.00 0.00 0.00 0.00 0.01 0.01 0.01 0.00 0.00
0.00 0.00 0.00 0.00 0.00 0.00 0.00 0.00 0.00 0.00 0.00 0.00 0.00 0.00 0.00 0.00 0.00 0.00 0.00 0.00 0.00 0.00 0.00 0.00 0.00 0.00 0.00 0.00 0.00 0.00 0.00 0.00 0.00 0.00 0.00 0.00 0.00 0.00 0.00 0.00 0.00 0.01 0.01 0.00
0.00 0.00 0.00 0.00 0.00 0.00 0.00 0.00 0.00 0.00 0.00 0.00 0.00 0.00 0.00 0.00 0.00 0.00 0.00 0.00 0.00 0.00 0.00 0.00 0.00 0.00 0.00 0.00 0.00 0.00 0.00 0.00 0.00 0.00 0.00 0.00 0.00 0.00 0.00 0.00 0.00 0.00 0.00 0.00
0.00 0.00 0.00 0.00 0.00 0.00 0.00 0.00 0.00 0.00 0.00 0.00 0.00 0.00 0.00 0.00 0.00 0.00 0.00 0.00 0.00 0.00 0.00 0.00 0.00 0.00 0.00 0.00 0.00 0.00 0.00 0.00 0.00 0.00 0.00 0.00 0.00 0.00 0.00 0.00 0.00 0.00 0.00 0.00
0.01 0.00 0.00 0.00 0.00 0.00 0.00 0.01 0.01 0.01 0.00 0.00 0.00 0.00 0.00 0.00 0.00 0.00 0.00 0.00 0.00 0.00 0.00 0.00 0.00 0.00 0.00 0.00 0.00 0.00 0.00 0.00 0.00 0.00 0.00 0.00 0.00 0.00 0.00 0.00 0.00 0.00 0.00 0.00
0.01 0.00 0.00 0.00 0.00 0.00 0.00 0.00 0.01 0.01 0.01 0.00 0.00 0.01 0.01 0.01 0.00 0.00 0.00 0.00 0.00 0.00 0.00 0.00 0.00 0.00 0.00 0.00 0.00 0.00 0.00 0.00 0.00 0.00 0.00 0.00 0.00 0.00 0.00 0.00 0.00 0.00 0.00 0.00
0.01 0.01 0.00 0.01 0.00 0.00 0.00 0.00 0.00 0.01 0.01 0.00 0.00 0.00 0.01 0.00 0.00 0.00 0.00 0.00 0.00 0.00 0.00 0.00 0.00 0.00 0.00 0.00 0.00 0.00 0.00 0.00 0.00 0.00 0.00 0.00 0.00 0.00 0.00 0.00 0.00 0.00 0.00 0.01
0.02 0.01 0.01 0.01 0.01 0.00 0.00 0.00 0.01 0.01 0.01 0.01 0.00 0.00 0.00 0.00 0.00 0.00 0.00 0.00 0.00 0.00 0.00 0.00 0.00 0.00 0.00 0.00 0.00 0.00 0.00 0.00 0.00 0.00 0.00 0.00 0.00 0.00 0.00 0.00 0.00 0.01 0.01 0.01
0.02 0.02 0.01 0.00 0.00 0.01 0.01 0.01 0.01 0.02 0.01 0.00 0.00 0.00 0.00 0.00 0.00 0.00 0.00 0.00 0.00 0.00 0.00 0.00 0.00 0.00 0.00 0.00 0.00 0.00 0.00 0.00 0.00 0.00 0.00 0.00 0.00 0.00 0.00 0.00 0.01 0.01 0.01 0.01
0.02 0.02 0.02 0.01 0.01 0.02 0.02 0.02 0.02 0.02 0.01 0.01 0.00 0.00 0.00 0.00 0.00 0.00 0.00 0.00 0.00 0.00 0.00 0.00 0.00 0.00 0.00 0.00 0.00 0.00 0.00 0.00 0.00 0.00 0.01 0.00 0.00 0.00 0.00 0.00 0.01 0.01 0.01 0.01
0.03 0.03 0.02 0.02 0.02 0.02 0.02 0.02 0.02 0.02 0.03 0.01 0.00 0.00 0.00 0.00 0.00 0.00 0.00 0.00 0.00 0.00 0.00 0.00 0.00 0.00 0.00 0.00 0.00 0.00 0.00 0.00 0.00 0.00 0.01 0.01 0.00 0.00 0.01 0.00 0.01 0.02 0.02 0.02
0.05 0.04 0.01 0.01 0.01 0.01 0.01 0.01 0.02 0.02 0.03 0.02 0.01 0.00 0.00 0.00 0.00 0.00 0.00 0.00 0.00 0.00 0.00 0.00 0.00 0.00 0.00 0.00 0.00 0.00 0.00 0.00 0.00 0.00 0.00 0.00 0.01 0.01 0.01 0.00 0.01 0.02 0.03 0.04
0.03 0.03 0.01 0.01 0.01 0.01 0.01 0.00 0.00 0.01 0.01 0.01 0.01 0.01 0.00 0.00 0.00 0.00 0.00 0.00 0.00 0.00 0.00 0.00 0.00 0.00 0.00 0.00 0.00 0.00 0.00 0.00 0.00 0.00 0.00 0.00 0.01 0.01 0.02 0.01 0.02 0.02 0.03 0.04
0.03 0.03 0.03 0.01 0.01 0.01 0.01 0.00 0.00 0.00 0.00 0.00 0.00 0.01 0.00 0.00 0.00 0.00 0.00 0.00 0.00 0.00 0.00 0.00 0.00 0.00 0.00 0.00 0.00 0.00 0.00 0.00 0.00 0.00 0.00 0.01 0.01 0.01 0.01 0.02 0.03 0.04 0.04 0.04
0.03 0.03 0.04 0.03 0.02 0.03 0.01 0.00 0.00 0.00 0.00 0.00 0.00 0.00 0.00 0.01 0.01 0.01 0.01 0.01 0.00 0.00 0.00 0.00 0.00 0.00 0.00 0.00 0.01 0.00 0.00 0.00 0.00 0.00 0.00 0.01 0.01 0.01 0.01 0.02 0.03 0.04 0.05 0.04
0.01 0.03 0.05 0.05 0.03 0.01 0.00 0.00 0.00 0.00 0.00 0.00 0.00 0.00 0.00 0.00 0.00 0.01 0.01 0.00 0.00 0.00 0.00 0.00 0.00 0.00 0.00 0.00 0.01 0.01 0.00 0.00 0.00 0.00 0.00 0.01 0.01 0.01 0.01 0.01 0.02 0.03 0.05 0.05
0.04 0.05 0.07 0.06 0.04 0.01 0.00 0.00 0.00 0.00 0.00 0.00 0.00 0.00 0.00 0.00 0.00 0.00 0.00 0.00 0.00 0.00 0.00 0.00 0.00 0.00 0.00 0.00 0.01 0.01 0.00 0.00 0.00 0.00 0.00 0.01 0.01 0.01 0.01 0.01 0.02 0.02 0.03 0.05
0.06 0.07 0.07 0.05 0.03 0.01 0.00 0.00 0.00 0.01 0.00 0.00 0.00 0.00 0.00 0.00 0.00 0.00 0.00 0.00 0.00 0.00 0.00 0.00 0.00 0.00 0.00 0.01 0.01 0.01 0.00 0.00 0.00 0.00 0.00 0.00 0.01 0.01 0.01 0.01 0.02 0.03 0.03 0.04
0.01 0.03 0.03 0.03 0.03 0.01 0.00 0.00 0.01 0.01 0.00 0.00 0.00 0.00 0.00 0.00 0.00 0.00 0.00 0.00 0.00 0.00 0.00 0.00 0.00 0.00 0.00 0.01 0.01 0.01 0.00 0.00 0.01 0.01 0.01 0.00 0.01 0.01 0.02 0.02 0.02 0.03 0.03 0.03
0.01 0.01 0.01 0.01 0.01 0.01 0.00 0.00 0.00 0.01 0.01 0.01 0.00 0.00 0.00 0.00 0.00 0.00 0.00 0.00 0.00 0.00 0.00 0.00 0.00 0.00 0.00 0.01 0.01 0.01 0.01 0.01 0.01 0.01 0.00 0.00 0.01 0.01 0.02 0.03 0.03 0.03 0.03 0.03
0.01 0.01 0.01 0.01 0.00 0.00 0.00 0.00 0.00 0.00 0.01 0.00 0.00 0.00 0.00 0.00 0.00 0.00 0.00 0.00 0.00 0.00 0.00 0.00 0.00 0.00 0.00 0.01 0.01 0.02 0.01 0.01 0.01 0.00 0.00 0.01 0.01 0.02 0.02 0.03 0.03 0.03 0.03 0.04
0.02 0.01 0.01 0.01 0.00 0.00 0.00 0.00 0.00 0.00 0.00 0.00 0.00 0.00 0.00 0.00 0.00 0.00 0.00 0.00 0.00 0.00 0.00 0.00 0.00 0.00 0.00 0.01 0.01 0.02 0.01 0.01 0.01 0.01 0.00 0.01 0.01 0.02 0.03 0.03 0.04 0.03 0.04 0.05
0.02 0.02 0.02 0.01 0.01 0.01 0.01 0.00 0.00 0.00 0.00 0.00 0.00 0.00 0.00 0.00 0.00 0.00 0.00 0.00 0.00 0.00 0.00 0.00 0.00 0.00 0.00 0.01 0.02 0.02 0.02 0.01 0.01 0.01 0.01 0.01 0.01 0.02 0.02 0.02 0.03 0.03 0.03 0.04
MSLP
1013.54 1014.04 1014.53 1014.99 1015.44 1015.85 1016.24 1016.58 1016.88 1017.14 1017.36 1017.54 1017.68 1017.81 1017.92 1018.03 1018.13 1018.21 1018.27 1018.31 1018.32 1018.29 1018.23 1018.15 1018.05 1017.95 1017.83 1017.69 1017.52 1017.29 1016.99 1016.60 1016.13 1015.58 1014.96 1014.29 1013.61 1012.92 1012.25 1011.60 1010.96 1010.33 1009.72 1009.12
1014.25 1014.71 1015.14 1015.53 1015.90 1016.26 1016.61 1016.95 1017.26 1017.53 1017.76 1017.94 1018.06 1018.14 1018.18 1018.19 1018.20 1018.20 1018.20 1018.21 1018.20 1018.19 1018.17 1018.13 1018.06 1017.98 1017.86 1017.70 1017.48 1017.20 1016.83 1016.38 1015.84 1015.21 1014.53 1013.80 1013.04 1012.28 1011.53 1010.79 1010.08 1009.39 1008.72 1008.08
1014.99 1015.42 1015.79 1016.11 1016.41 1016.72 1017.03 1017.34 1017.64 1017.91 1018.12 1018.25 1018.32 1018.32 1018.28 1018.20 1018.13 1018.07 1018.04 1018.04 1018.05 1018.08 1018.11 1018.11 1018.08 1018.01 1017.88 1017.69 1017.42 1017.07 1016.63 1016.11 1015.50 1014.81 1014.06 1013.27 1012.44 1011.62 1010.79 1009.99 1009.21 1008.45 1007.73 1007.04
1015.72 1016.13 1016.46 1016.73 1016.99 1017.25 1017.52 1017.79 1018.05 1018.27 1018.42 1018.48 1018.46 1018.37 1018.23 1018.07 1017.93 1017.83 1017.80 1017.82 1017.89 1017.98 1018.07 1018.13 1018.14 1018.07 1017.91 1017.67 1017.34 1016.91 1016.40 1015.80 1015.13 1014.38 1013.58 1012.74 1011.87 1010.98 1010.10 1009.23 1008.39 1007.57 1006.79 1006.05
1016.38 1016.80 1017.12 1017.38 1017.61 1017.84 1018.07 1018.30 1018.51 1018.65 1018.71 1018.66 1018.52 1018.31 1018.06 1017.81 1017.62 1017.51 1017.50 1017.59 1017.74 1017.92 1018.09 1018.21 1018.25 1018.17 1017.98 1017.67 1017.26 1016.74 1016.14 1015.47 1014.74 1013.95 1013.11 1012.24 1011.34 1010.41 1009.49 1008.57 1007.66 1006.78 1005.94 1005.13
1016.96 1017.40 1017.74 1018.01 1018.25 1018.48 1018.70 1018.90 1019.04 1019.09 1019.03 1018.85 1018.57 1018.21 1017.84 1017.50 1017.27 1017.17 1017.21 1017.37 1017.62 1017.92 1018.18 1018.36 1018.42 1018.33 1018.08 1017.69 1017.17 1016.56 1015.87 1015.12 1014.33 1013.51 1012.66 1011.78 1010.86 1009.92 1008.97 1008.00 1007.04 1006.10 1005.17 1004.29
1017.41 1017.89 1018.28 1018.60 1018.89 1019.16 1019.40 1019.59 1019.68 1019.64 1019.45 1019.12 1018.67 1018.15 1017.65 1017.23 1016.95 1016.86 1016.95 1017.21 1017.57 1017.97 1018.33 1018.57 1018.64 1018.52 1018.21 1017.72 1017.09 1016.37 1015.58 1014.76 1013.93 1013.09 1012.23 1011.35 1010.45 1009.50 1008.53 1007.53 1006.51 1005.49 1004.48 1003.50
1017.72 1018.24 1018.70 1019.11 1019.50 1019.85 1020.15 1020.36 1020.42 1020.31 1020.00 1019.51 1018.89 1018.22 1017.57 1017.05 1016.73 1016.64 1016.78 1017.13 1017.59 1018.10 1018.53 1018.81 1018.89 1018.72 1018.33 1017.74 1017.00 1016.16 1015.28 1014.39 1013.52 1012.67 1011.82 1010.96 1010.06 1009.13 1008.14 1007.10 1006.02 1004.92 1003.81 1002.72
1017.87 1018.45 1019.00 1019.53 1020.04 1020.52 1020.92 1021.18 1021.25 1021.08 1020.67 1020.05 1019.27 1018.43 1017.65 1017.03 1016.65 1016.55 1016.73 1017.14 1017.68 1018.26 1018.75 1019.06 1019.11 1018.90 1018.42 1017.73 1016.87 1015.93 1014.97 1014.02 1013.12 1012.26 1011.42 1010.57 1009.69 1008.76 1007.75 1006.66 1005.52 1004.33 1003.13 1001.93
1017.88 1018.52 1019.16 1019.83 1020.50 1021.13 1021.66 1022.01 1022.11 1021.92 1021.43 1020.69 1019.78 1018.80 1017.89 1017.17 1016.72 1016.60 1016.79 1017.23 1017.82 1018.44 1018.95 1019.26 1019.29 1019.02 1018.46 1017.67 1016.72 1015.69 1014.66 1013.66 1012.73 1011.86 1011.03 1010.19 1009.32 1008.37 1007.33 1006.19 1004.98 1003.71 1002.41 1001.11
1017.78 1018.47 1019.21 1020.01 1020.84 1021.62 1022.29 1022.74 1022.90 1022.71 1022.19 1021.37 1020.35 1019.26 1018.24 1017.43 1016.93 1016.76 1016.94 1017.38 1017.98 1018.60 1019.11 1019.40 1019.39 1019.06 1018.44 1017.57 1016.55 1015.45 1014.37 1013.34 1012.39 1011.51 1010.67 1009.83 1008.94 1007.96 1006.87 1005.67 1004.38 1003.02 1001.64 1000.26
1017.63 1018.36 1019.18 1020.10 1021.05 1021.98 1022.76 1023.30 1023.51 1023.35 1022.80 1021.94 1020.86 1019.70 1018.61 1017.74 1017.18 1016.99 1017.13 1017.55 1018.13 1018.73 1019.22 1019.47 1019.41 1019.04 1018.36 1017.45 1016.38 1015.25 1014.13 1013.09 1012.12 1011.23 1010.37 1009.50 1008.57 1007.54 1006.39 1005.11 1003.74 1002.31 1000.85 999.42
1017.50 1018.24 1019.11 1020.10 1021.14 1022.15 1023.01 1023.61 1023.86 1023.71 1023.17 1022.29 1021.19 1020.01 1018.90 1018.00 1017.42 1017.20 1017.32 1017.71 1018.25 1018.82 1019.26 1019.47 1019.38 1018.97 1018.26 1017.33 1016.25 1015.12 1014.00 1012.94 1011.96 1011.04 1010.15 1009.24 1008.25 1007.14 1005.91 1004.55 1003.10 1001.60 1000.10 998.64
1017.43 1018.17 1019.05 1020.05 1021.11 1022.12 1022.99 1023.60 1023.85 1023.70 1023.17 1022.31 1021.23 1020.08 1019.00 1018.13 1017.58 1017.36 1017.47 1017.84 1018.34 1018.86 1019.26 1019.42 1019.31 1018.88 1018.18 1017.26 1016.20 1015.08 1013.97 1012.92 1011.93 1010.98 1010.04 1009.06 1007.99 1006.80 1005.48 1004.04 1002.52 1000.96 999.43 997.97
1017.48 1018.19 1019.02 1019.97 1020.96 1021.90 1022.70 1023.24 1023.45 1023.28 1022.75 1021.94 1020.93 1019.86 1018.87 1018.09 1017.60 1017.43 1017.56 1017.92 1018.40 1018.87 1019.23 1019.37 1019.23 1018.81 1018.13 1017.25 1016.23 1015.15 1014.08 1013.04 1012.03 1011.05 1010.05 1008.98 1007.82 1006.54 1005.12 1003.61 1002.03 1000.44 998.90 997.46
1017.64 1018.28 1019.03 1019.85 1020.69 1021.49 1022.14 1022.56 1022.67 1022.46 1021.94 1021.18 1020.28 1019.34 1018.50 1017.86 1017.49 1017.41 1017.59 1017.96 1018.43 1018.88 1019.21 1019.33 1019.19 1018.78 1018.14 1017.31 1016.35 1015.33 1014.29 1013.26 1012.24 1011.21 1010.15 1009.00 1007.74 1006.37 1004.87 1003.29 1001.67 1000.07 998.55 997.15
1017.88 1018.43 1019.04 1019.68 1020.33 1020.90 1021.35 1021.59 1021.58 1021.31 1020.81 1020.13 1019.35 1018.59 1017.93 1017.48 1017.27 1017.31 1017.58 1017.99 1018.47 1018.90 1019.21 1019.32 1019.18 1018.80 1018.21 1017.43 1016.54 1015.57 1014.57 1013.55 1012.51 1011.44 1010.30 1009.08 1007.74 1006.28 1004.73 1003.11 1001.48 999.89 998.40 997.05
1018.11 1018.55 1019.00 1019.44 1019.84 1020.17 1020.38 1020.42 1020.28 1019.95 1019.46 1018.87 1018.26 1017.70 1017.27 1017.03 1017.01 1017.20 1017.56 1018.03 1018.52 1018.95 1019.25 1019.34 1019.22 1018.86 1018.31 1017.59 1016.75 1015.84 1014.86 1013.85 1012.79 1011.68 1010.48 1009.19 1007.78 1006.28 1004.69 1003.07 1001.46 999.91 998.47 997.18
1018.23 1018.56 1018.84 1019.07 1019.24 1019.32 1019.29 1019.15 1018.88 1018.50 1018.05 1017.57 1017.13 1016.79 1016.59 1016.58 1016.76 1017.10 1017.57 1018.09 1018.61 1019.03 1019.31 1019.40 1019.28 1018.95 1018.43 1017.76 1016.96 1016.08 1015.13 1014.12 1013.04 1011.88 1010.63 1009.29 1007.85 1006.33 1004.75 1003.16 1001.61 1000.13 998.77 997.56
1018.13 1018.37 1018.50 1018.55 1018.50 1018.36 1018.15 1017.85 1017.49 1017.09 1016.70 1016.36 1016.10 1015.98 1016.01 1016.21 1016.57 1017.06 1017.62 1018.19 1018.72 1019.14 1019.40 1019.47 1019.35 1019.03 1018.54 1017.90 1017.14 1016.28 1015.34 1014.32 1013.21 1012.03 1010.75 1009.38 1007.94 1006.43 1004.91 1003.39 1001.93 1000.56 999.30 998.19
1017.76 1017.91 1017.93 1017.83 1017.63 1017.34 1016.98 1016.59 1016.19 1015.82 1015.51 1015.31 1015.24 1015.33 1015.57 1015.97 1016.49 1017.09 1017.72 1018.33 1018.86 1019.26 1019.50 1019.55 1019.42 1019.10 1018.63 1018.01 1017.27 1016.43 1015.48 1014.45 1013.33 1012.12 1010.83 1009.46 1008.05 1006.60 1005.16 1003.75 1002.42 1001.18 1000.06 999.06
1017.08 1017.18 1017.13 1016.94 1016.64 1016.27 1015.85 1015.42 1015.04 1014.74 1014.54 1014.49 1014.60 1014.88 1015.30 1015.86 1016.51 1017.19 1017.87 1018.50 1019.01 1019.39 1019.60 1019.63 1019.48 1019.17 1018.70 1018.09 1017.36 1016.52 1015.58 1014.53 1013.40 1012.18 1010.89 1009.56 1008.20 1006.83 1005.51 1004.24 1003.06 1001.99 1001.01 1000.15
1016.16 1016.22 1016.14 1015.91 1015.58 1015.19 1014.78 1014.39 1014.07 1013.87 1013.81 1013.92 1014.20 1014.63 1015.21 1015.89 1016.62 1017.36 1018.07 1018.68 1019.18 1019.52 1019.70 1019.71 1019.55 1019.23 1018.76 1018.16 1017.44 1016.60 1015.65 1014.60 1013.46 1012.25 1010.98 1009.69 1008.41 1007.16 1005.97 1004.86 1003.85 1002.95 1002.14 1001.42
1015.09 1015.14 1015.04 1014.83 1014.52 1014.16 1013.81 1013.50 1013.30 1013.23 1013.31 1013.57 1014.00 1014.57 1015.26 1016.03 1016.82 1017.59 1018.29 1018.89 1019.35 1019.67 1019.82 1019.80 1019.63 1019.30 1018.84 1018.24 1017.52 1016.68 1015.72 1014.67 1013.54 1012.34 1011.12 1009.89 1008.70 1007.57 1006.53 1005.59 1004.75 1004.02 1003.38 1002.80
1014.02 1014.06 1013.97 1013.79 1013.53 1013.25 1012.99 1012.81 1012.73 1012.80 1013.03 1013.43 1013.99 1014.67 1015.44 1016.27 1017.09 1017.86 1018.55 1019.12 1019.56 1019.84 1019.95 1019.92 1019.73 1019.40 1018.94 1018.34 1017.61 1016.77 1015.82 1014.77 1013.65 1012.49 1011.32 1010.17 1009.07 1008.07 1007.17 1006.39 1005.73 1005.16 1004.67 1004.23
1013.12 1013.14 1013.07 1012.92 1012.73 1012.54 1012.39 1012.33 1012.39 1012.59 1012.96 1013.48 1014.14 1014.91 1015.74 1016.60 1017.43 1018.19 1018.86 1019.40 1019.79 1020.04 1020.13 1020.07 1019.87 1019.53 1019.05 1018.45 1017.72 1016.88 1015.93 1014.90 1013.80 1012.68 1011.57 1010.50 1009.52 1008.63 1007.88 1007.24 1006.73 1006.31 1005.95 1005.63
Thickness
5576 5571 5573 5578 5580 5585 5583 5582 5587 5590 5589 5589 5589 5597 5609 5611 5608 5608 5607 5608 5610 5614 5616 5615 5614 5613 5610 5608 5607 5606 5605 5604 5602 5599 5597 5596 5595 5595 5594 5593 5592 5590 5589 5587
5561 5564 5574 5573 5572 5575 5575 5576 5578 5581 5581 5582 5580 5588 5603 5608 5609 5609 5608 5609 5609 5609 5610 5609 5608 5606 5604 5603 5601 5600 5599 5597 5595 5593 5591 5589 5587 5586 5585 5584 5582 5580 5578 5576
5560 5566 5569 5567 5564 5564 5565 5566 5571 5573 5571 5570 5570 5592 5605 5609 5607 5608 5607 5608 5608 5607 5605 5604 5602 5600 5597 5596 5595 5595 5592 5590 5588 5586 5583 5580 5578 5576 5575 5573 5571 5570 5567 5565
5547 5555 5559 5558 5557 5557 5558 5561 5562 5562 5558 5553 5559 5570 5598 5601 5600 5604 5603 5600 5601 5602 5600 5598 5597 5594 5592 5591 5589 5587 5585 5583 5580 5578 5575 5571 5569 5566 5565 5563 5561 5560 5557 5554
5539 5546 5550 5551 5553 5552 5549 5548 5546 5545 5542 5539 5543 5548 5584 5591 5598 5603 5602 5598 5596 5595 5594 5593 5591 5590 5588 5584 5581 5579 5577 5575 5573 5570 5566 5563 5560 5557 5555 5553 5551 5550 5548 5545
5532 5538 5542 5544 5543 5543 5535 5531 5526 5518 5521 5535 5542 5541 5572 5578 5594 5601 5600 5595 5591 5588 5587 5586 5584 5582 5579 5576 5573 5571 5568 5566 5564 5561 5557 5554 5550 5548 5545 5543 5541 5540 5538 5535
5522 5527 5531 5533 5529 5529 5529 5522 5517 5522 5512 5528 5531 5533 5562 5584 5586 5589 5591 5588 5583 5580 5578 5577 5575 5573 5570 5567 5565 5562 5560 5557 5555 5551 5548 5545 5541 5538 5535 5533 5531 5529 5527 5525
5507 5513 5519 5522 5525 5520 5517 5523 5518 5523 5523 5526 5520 5526 5559 5574 5575 5576 5577 5577 5575 5572 5570 5569 5568 5565 5562 5559 5556 5554 5551 5548 5545 5542 5539 5536 5532 5528 5526 5523 5521 5518 5516 5515
5498 5504 5507 5511 5515 5515 5506 5504 5508 5494 5488 5506 5518 5523 5545 5567 5567 5569 5570 5569 5567 5565 5562 5560 5558 5556 5553 5551 5548 5545 5542 5539 5536 5533 5529 5526 5523 5519 5516 5514 5511 5508 5506 5505
5493 5486 5492 5495 5501 5499 5502 5493 5487 5489 5498 5514 5521 5520 5542 5561 5563 5562 5559 5557 5556 5555 5553 5551 5549 5547 5544 5541 5538 5535 5532 5529 5526 5522 5519 5517 5513 5510 5507 5504 5502 5499 5497 5495
5482 5473 5472 5480 5485 5485 5483 5485 5484 5477 5481 5493 5507 5531 5543 5546 5551 5548 5546 5545 5544 5543 5542 5540 5538 5536 5533 5530 5527 5524 5522 5519 5516 5513 5509 5506 5503 5500 5497 5494 5492 5490 5488 5485
5471 5462 5455 5464 5468 5472 5477 5477 5474 5483 5471 5462 5476 5513 5540 5533 5533 5533 5533 5534 5534 5533 5530 5528 5526 5524 5522 5519 5517 5514 5511 5508 5506 5503 5499 5496 5493 5489 5487 5484 5482 5480 5478 5475
5462 5455 5452 5458 5456 5453 5457 5461 5462 5462 5455 5446 5469 5512 5527 5520 5523 5523 5522 5522 5520 5520 5519 5516 5514 5513 5511 5509 5506 5503 5500 5498 5495 5492 5488 5485 5482 5479 5477 5475 5473 5471 5468 5466
5459 5448 5459 5469 5472 5454 5447 5449 5450 5456 5454 5448 5463 5496 5513 5515 5514 5513 5511 5509 5507 5506 5506 5505 5503 5502 5500 5498 5495 5493 5490 5487 5484 5481 5478 5475 5472 5470 5468 5466 5464 5462 5459 5456
5447 5442 5442 5449 5452 5447 5451 5449 5445 5451 5457 5464 5477 5478 5501 5504 5501 5500 5498 5497 5497 5497 5496 5495 5493 5491 5489 5487 5485 5482 5480 5477 5474 5470 5467 5465 5463 5461 5458 5457 5455 5453 5451 5448
5431 5430 5431 5436 5441 5443 5447 5449 5445 5450 5456 5457 5466 5477 5493 5491 5488 5486 5486 5485 5485 5486 5486 5485 5484 5481 5479 5477 5474 5472 5469 5466 5463 5460 5458 5455 5453 5452 5450 5448 5446 5445 5443 5440
5416 5417 5421 5422 5427 5433 5437 5451 5449 5449 5452 5455 5465 5484 5485 5480 5479 5479 5478 5477 5476 5476 5476 5475 5473 5471 5469 5466 5463 5460 5458 5455 5452 5450 5447 5445 5443 5442 5440 5439 5438 5436 5434 5432
5408 5410 5408 5407 5412 5420 5456 5457 5456 5454 5456 5455 5464 5472 5472 5472 5470 5469 5468 5467 5467 5467 5466 5464 5462 5460 5457 5454 5451 5449 5446 5443 5441 5439 5437 5435 5434 5433 5431 5430 5429 5427 5425 5423
5405 5405 5399 5398 5403 5416 5439 5444 5441 5439 5447 5452 5454 5461 5459 5457 5456 5458 5461 5459 5459 5458 5456 5453 5451 5448 5445 5442 5440 5437 5434 5431 5429 5428 5427 5425 5424 5423 5422 5421 5420 5418 5416 5415
5394 5396 5393 5390 5399 5412 5440 5440 5435 5437 5439 5448 5445 5447 5445 5443 5442 5450 5453 5450 5448 5446 5443 5441 5438 5435 5433 5430 5428 5426 5423 5421 5419 5418 5417 5416 5414 5413 5412 5411 5410 5409 5407 5407
5385 5385 5386 5385 5391 5406 5425 5423 5427 5427 5436 5440 5436 5436 5434 5431 5436 5439 5439 5438 5437 5434 5432 5430 5426 5423 5421 5418 5416 5414 5412 5411 5410 5409 5407 5407 5405 5403 5403 5402 5402 5400 5399 5399
5380 5377 5377 5380 5386 5402 5413 5411 5416 5422 5426 5426 5426 5427 5426 5425 5426 5426 5426 5425 5424 5422 5420 5418 5415 5412 5409 5407 5405 5404 5402 5401 5400 5399 5398 5397 5396 5395 5395 5393 5393 5392 5391 5390
5375 5381 5381 5386 5398 5402 5401 5406 5409 5409 5412 5414 5414 5415 5415 5414 5414 5415 5413 5412 5410 5409 5407 5405 5403 5401 5399 5396 5394 5393 5393 5391 5390 5389 5388 5387 5387 5386 5385 5384 5384 5384 5383 5382
5365 5370 5371 5374 5385 5390 5391 5393 5396 5399 5400 5403 5403 5403 5403 5403 5403 5402 5400 5398 5397 5396 5395 5393 5391 5390 5389 5386 5384 5382 5381 5380 5379 5378 5378 5377 5377 5377 5377 5376 5376 5376 5375 5375
5363 5360 5362 5366 5374 5378 5386 5387 5389 5389 5389 5390 5391 5391 5391 5390 5390 5389 5387 5385 5384 5384 5382 5380 5378 5378 5377 5375 5374 5373 5371 5369 5368 5368 5367 5368 5368 5367 5368 5369 5367 5368 5368 5367
5351 5354 5359 5368 5372 5373 5378 5380 5380 5379 5380 5380 5380 5380 5379 5378 5377 5376 5374 5372 5371 5370 5370 5368 5368 5367 5366 5364 5363 5362 5361 5359 5358 5358 5358 5359 5359 5359 5360 5361 5363 5364 5363 5366